SXS7DP LTBJ-EHEH

Flight info

Callsign SXS7DP
Flight time N/A
Altitude 36000
Route RIKSO UN127 LMO UN128 FSK DCT DISOR DCT LONTA UM749 UDVAR DCT SOMUN DCT SIVLA DCT BEDOX DCT ERKIR DCT KUNOD DCT EDISA DCT LIMGO DCT LNO
Aircraft B38M/M-SDE1FGHILORVWXY/HB1

Departure

Time 2026-05-05 14:32
Airport Adnan Menderes International Airport (LTBJ)

Arrival

Time N/A
Airport Eindhoven Airport (EHEH)
Time Latitude Longitude Altitude Speed Heading
2026-05-05 14:05 38.29704 27.14900 421 ft 0 kts 256°
2026-05-05 14:19 38.29706 27.14911 411 ft 2 kts 254°
2026-05-05 14:19 38.29710 27.14930 411 ft 2 kts 252°
2026-05-05 14:19 38.29716 27.14950 416 ft 2 kts 247°
2026-05-05 14:19 38.29723 27.14969 413 ft 2 kts 239°
2026-05-05 14:20 38.29733 27.14986 414 ft 2 kts 226°
2026-05-05 14:20 38.29746 27.14999 413 ft 2 kts 201°
2026-05-05 14:20 38.29762 27.15002 415 ft 2 kts 174°
2026-05-05 14:20 38.29770 27.15000 414 ft 0 kts 167°
2026-05-05 14:21 38.29771 27.15000 414 ft 0 kts 167°
2026-05-05 14:24 38.29770 27.15001 414 ft 1 kts 167°
2026-05-05 14:24 38.29758 27.15004 416 ft 3 kts 168°
2026-05-05 14:25 38.29731 27.15011 416 ft 5 kts 168°
2026-05-05 14:25 38.29692 27.15022 413 ft 7 kts 165°
2026-05-05 14:25 38.29640 27.15039 419 ft 8 kts 167°
2026-05-05 14:25 38.29577 27.15058 418 ft 10 kts 166°
2026-05-05 14:26 38.29504 27.15080 414 ft 12 kts 166°
2026-05-05 14:26 38.29418 27.15106 418 ft 13 kts 166°
2026-05-05 14:26 38.29324 27.15134 415 ft 15 kts 167°
2026-05-05 14:26 38.29220 27.15166 418 ft 16 kts 167°
2026-05-05 14:27 38.29105 27.15200 419 ft 18 kts 167°
2026-05-05 14:27 38.29013 27.15243 421 ft 10 kts 121°
2026-05-05 14:27 38.28997 27.15299 419 ft 3 kts 140°
2026-05-05 14:27 38.28984 27.15304 419 ft 3 kts 167°
2026-05-05 14:28 38.28929 27.15320 417 ft 14 kts 166°
2026-05-05 14:28 38.28798 27.15359 421 ft 24 kts 167°
2026-05-05 14:28 38.28621 27.15412 416 ft 25 kts 166°
2026-05-05 14:28 38.28438 27.15467 414 ft 28 kts 167°
2026-05-05 14:29 38.28247 27.15525 418 ft 29 kts 166°
2026-05-05 14:29 38.28060 27.15581 416 ft 27 kts 166°
2026-05-05 14:29 38.27881 27.15635 412 ft 26 kts 167°
2026-05-05 14:29 38.27760 27.15682 414 ft 11 kts 125°
2026-05-05 14:30 38.27770 27.15785 415 ft 13 kts 75°
2026-05-05 14:30 38.27798 27.15904 413 ft 14 kts 51°
2026-05-05 14:30 38.27849 27.15899 411 ft 7 kts 341°
2026-05-05 14:30 38.27887 27.15887 415 ft 0 kts 346°
2026-05-05 14:31 38.27888 27.15887 415 ft 2 kts 346°
2026-05-05 14:31 38.28072 27.15831 414 ft 64 kts 347°
2026-05-05 14:31 38.28734 27.15634 414 ft 130 kts 347°
2026-05-05 14:32 38.29766 27.15310 579 ft 168 kts 343°
2026-05-05 14:32 38.30911 27.14983 1305 ft 170 kts 347°
2026-05-05 14:32 38.32106 27.14638 1935 ft 183 kts 347°
2026-05-05 14:32 38.33393 27.14271 2451 ft 201 kts 347°
2026-05-05 14:33 38.34889 27.13860 2780 ft 230 kts 347°
2026-05-05 14:33 38.36497 27.13427 3517 ft 241 kts 348°
2026-05-05 14:33 38.38149 27.12980 4437 ft 244 kts 348°
2026-05-05 14:33 38.39786 27.12514 5514 ft 242 kts 347°
2026-05-05 14:34 38.41452 27.12010 6320 ft 251 kts 347°
2026-05-05 14:34 38.43184 27.11483 7077 ft 259 kts 347°
2026-05-05 14:34 38.44931 27.10955 8036 ft 259 kts 347°
2026-05-05 14:34 38.46684 27.10426 8905 ft 262 kts 348°
2026-05-05 14:35 38.48464 27.09888 9838 ft 263 kts 348°
2026-05-05 14:35 38.50289 27.09337 10544 ft 272 kts 347°
2026-05-05 14:35 38.52204 27.08759 10879 ft 293 kts 347°
2026-05-05 14:35 38.54245 27.08141 11237 ft 310 kts 347°
2026-05-05 14:36 38.56391 27.07492 11731 ft 322 kts 347°
2026-05-05 14:36 38.58574 27.06804 12548 ft 324 kts 342°
2026-05-05 14:36 38.60562 27.05408 13295 ft 331 kts 321°
2026-05-05 14:36 38.62023 27.03124 14008 ft 341 kts 302°
2026-05-05 14:37 38.63057 27.00325 14709 ft 345 kts 298°
2026-05-05 14:37 38.64079 26.97529 15399 ft 349 kts 298°
2026-05-05 14:37 38.65100 26.94700 16096 ft 351 kts 298°
2026-05-05 14:37 38.66110 26.91888 16762 ft 354 kts 298°
2026-05-05 14:38 38.67139 26.89012 17436 ft 357 kts 298°
2026-05-05 14:38 38.68177 26.86106 18058 ft 360 kts 298°
2026-05-05 14:38 38.69222 26.83177 18630 ft 364 kts 298°
2026-05-05 14:38 38.70272 26.80233 19164 ft 367 kts 298°
2026-05-05 14:39 38.71349 26.77205 19731 ft 369 kts 297°
2026-05-05 14:39 38.72402 26.74246 20273 ft 372 kts 297°
2026-05-05 14:39 38.73480 26.71212 20813 ft 375 kts 297°
2026-05-05 14:39 38.74562 26.68163 21342 ft 378 kts 297°
2026-05-05 14:40 38.75654 26.65083 21864 ft 381 kts 297°
2026-05-05 14:40 38.76754 26.61978 22380 ft 384 kts 297°
2026-05-05 14:40 38.77860 26.58853 22897 ft 387 kts 297°
2026-05-05 14:40 38.78974 26.55701 23379 ft 390 kts 297°
2026-05-05 14:41 38.80087 26.52547 23867 ft 391 kts 297°
2026-05-05 14:41 38.81210 26.49366 24304 ft 393 kts 297°
2026-05-05 14:41 38.82335 26.46179 24740 ft 394 kts 298°
2026-05-05 14:41 38.83802 26.43236 25154 ft 390 kts 314°
2026-05-05 14:42 38.85801 26.40898 25564 ft 391 kts 320°
2026-05-05 14:42 38.87869 26.38619 25956 ft 393 kts 321°
2026-05-05 14:42 38.89967 26.36342 26354 ft 395 kts 321°
2026-05-05 14:42 38.92077 26.34078 26749 ft 396 kts 321°
2026-05-05 14:43 38.94200 26.31812 27154 ft 398 kts 321°
2026-05-05 14:43 38.96325 26.29548 27543 ft 400 kts 321°
2026-05-05 14:43 38.98474 26.27260 27930 ft 401 kts 321°
2026-05-05 14:43 39.00625 26.24969 28286 ft 403 kts 321°
2026-05-05 14:44 39.02783 26.22669 28705 ft 403 kts 321°
2026-05-05 14:44 39.04941 26.20366 29075 ft 404 kts 321°
2026-05-05 14:44 39.07112 26.18049 29423 ft 406 kts 321°
2026-05-05 14:44 39.09293 26.15718 29782 ft 407 kts 321°
2026-05-05 14:45 39.11483 26.13375 30125 ft 409 kts 321°
2026-05-05 14:45 39.13677 26.11027 30402 ft 411 kts 321°
2026-05-05 14:45 39.15865 26.08683 30646 ft 413 kts 321°
2026-05-05 14:45 39.18078 26.06310 30931 ft 414 kts 321°
2026-05-05 14:46 39.20286 26.03941 31311 ft 413 kts 321°
2026-05-05 14:46 39.22489 26.01575 31681 ft 412 kts 321°
2026-05-05 14:46 39.24689 25.99210 32071 ft 411 kts 321°
2026-05-05 14:46 39.26879 25.96855 32442 ft 410 kts 321°
2026-05-05 14:47 39.29057 25.94494 32805 ft 409 kts 320°
2026-05-05 14:47 39.31204 25.92097 33212 ft 407 kts 320°
2026-05-05 14:47 39.33342 25.89714 33587 ft 405 kts 320°
2026-05-05 14:47 39.35441 25.87376 33935 ft 405 kts 320°
2026-05-05 14:48 39.37568 25.85005 34238 ft 404 kts 320°
2026-05-05 14:48 39.39725 25.82599 34491 ft 404 kts 320°
2026-05-05 14:48 39.41857 25.80219 34731 ft 405 kts 320°
2026-05-05 14:48 39.43990 25.77837 34962 ft 405 kts 320°
2026-05-05 14:49 39.46127 25.75447 35175 ft 407 kts 320°
2026-05-05 14:49 39.48267 25.73054 35401 ft 407 kts 320°
2026-05-05 14:49 39.49688 25.71461 35543 ft 407 kts 320°
2026-05-05 14:49 39.51835 25.69056 35758 ft 408 kts 320°
2026-05-05 14:50 39.53973 25.66658 35960 ft 409 kts 320°
2026-05-05 14:50 39.56825 25.63456 36041 ft 410 kts 320°
2026-05-05 14:50 39.60404 25.59434 36053 ft 405 kts 320°
2026-05-05 14:51 39.64672 25.54629 36048 ft 406 kts 320°
2026-05-05 14:51 39.68933 25.49823 36048 ft 406 kts 320°
2026-05-05 14:52 39.73182 25.45023 36047 ft 406 kts 320°
2026-05-05 14:52 39.77450 25.40194 36048 ft 407 kts 320°
2026-05-05 14:53 39.81715 25.35360 36041 ft 406 kts 320°
2026-05-05 14:53 39.85975 25.30523 36046 ft 405 kts 320°
2026-05-05 14:54 39.90214 25.25703 36046 ft 404 kts 320°
2026-05-05 14:54 39.92211 25.23149 36034 ft 405 kts 309°
2026-05-05 14:54 39.93856 25.20112 36055 ft 406 kts 308°
2026-05-05 14:55 39.97164 25.14115 36057 ft 406 kts 307°
2026-05-05 14:55 40.00456 25.08057 36044 ft 406 kts 307°
2026-05-05 14:56 40.03704 25.02055 36046 ft 406 kts 307°
2026-05-05 14:56 40.06713 24.96485 36036 ft 405 kts 307°
2026-05-05 14:57 40.09949 24.90481 36039 ft 405 kts 307°
2026-05-05 14:57 40.13190 24.84459 36040 ft 405 kts 307°
2026-05-05 14:58 40.16445 24.78396 36040 ft 405 kts 307°
2026-05-05 14:58 40.19679 24.72362 36039 ft 405 kts 307°
2026-05-05 14:59 40.22902 24.66338 36040 ft 405 kts 307°
2026-05-05 14:59 40.26126 24.60299 36034 ft 405 kts 307°
2026-05-05 15:00 40.28810 24.55264 36036 ft 405 kts 307°
2026-05-05 15:00 40.32571 24.48193 36037 ft 405 kts 307°
2026-05-05 15:01 40.35773 24.42160 36042 ft 405 kts 307°
2026-05-05 15:01 40.39020 24.36032 36022 ft 406 kts 307°
2026-05-05 15:02 40.42234 24.29954 36032 ft 405 kts 307°
2026-05-05 15:02 40.45444 24.23872 36028 ft 405 kts 307°
2026-05-05 15:03 40.48661 24.17764 36030 ft 405 kts 307°
2026-05-05 15:03 40.51852 24.11693 36028 ft 405 kts 307°
2026-05-05 15:04 40.54530 24.06591 36010 ft 405 kts 307°
2026-05-05 15:04 40.57735 24.00476 36021 ft 404 kts 307°
2026-05-05 15:05 40.62511 23.91328 36024 ft 404 kts 307°
2026-05-05 15:06 40.65685 23.85234 36014 ft 404 kts 307°
2026-05-05 15:06 40.68857 23.79131 36014 ft 404 kts 306°
2026-05-05 15:07 40.72044 23.72988 35987 ft 405 kts 306°
2026-05-05 15:07 40.75243 23.66815 36007 ft 406 kts 306°
2026-05-05 15:08 40.78423 23.60659 35988 ft 406 kts 306°
2026-05-05 15:08 40.81601 23.54498 35991 ft 406 kts 306°
2026-05-05 15:09 40.84784 23.48314 35981 ft 406 kts 306°
2026-05-05 15:09 40.87950 23.42152 35963 ft 406 kts 306°
2026-05-05 15:10 40.91118 23.35971 35975 ft 406 kts 306°
2026-05-05 15:10 40.94265 23.29822 35974 ft 406 kts 306°
2026-05-05 15:11 40.97438 23.23611 35970 ft 405 kts 306°
2026-05-05 15:11 41.00592 23.17423 35970 ft 406 kts 306°
2026-05-05 15:12 41.03747 23.11223 35978 ft 406 kts 306°
2026-05-05 15:12 41.06891 23.05030 35969 ft 407 kts 305°